| time (UTC) | temp F | wind direction | speed knots | gust knots | rain 1hr in | rain 24hr in | rain mn in | humidity % | barometer mb |
| 20260905060801 | 80 | 122 | 0.0 | 0.0 | 0.00 | 0.00 | 0.00 | 61 | 1013.3 |
| 20260905055801 | 80 | 105 | 0.0 | 0.0 | 0.00 | 0.00 | 0.00 | 61 | 1013.3 |
| 20260905055301 | 80 | 145 | 0.0 | 0.0 | 0.00 | 0.00 | 0.00 | 61 | 1013.3 |
| 20260905054800 | 81 | 140 | 0.0 | 0.0 | 0.00 | 0.00 | 0.00 | 60 | 1013.4 |
| 20260905054301 | 81 | 122 | 0.0 | 0.0 | 0.00 | 0.00 | 0.00 | 60 | 1013.4 |
| 20260905052801 | 81 | 109 | 0.0 | 0.0 | 0.00 | 0.00 | 0.00 | 60 | 1013.5 |
| 20260905052300 | 81 | 102 | 0.0 | 0.0 | 0.00 | 0.00 | 0.00 | 60 | 1013.5 |
| 20260905051801 | 81 | 136 | 0.0 | 0.0 | 0.00 | 0.00 | 0.00 | 60 | 1013.5 |
| 20260905051301 | 81 | 122 | 0.0 | 0.0 | 0.00 | 0.00 | 0.00 | 60 | 1013.5 |
| 20260905045300 | 82 | 121 | 0.0 | 0.0 | 0.00 | 0.00 | 0.00 | 59 | 1013.5 |
| 20260905044301 | 82 | 101 | 0.0 | 0.0 | 0.00 | 0.00 | 0.00 | 59 | 1013.2 |
| 20260905043800 | 82 | 104 | 0.0 | 0.0 | 0.00 | 0.00 | 0.00 | 58 | 1013.2 |
| 20260905043300 | 82 | 102 | 0.0 | 0.0 | 0.00 | 0.00 | 0.00 | 58 | 1013.2 |
| 20260905042800 | 82 | 178 | 0.0 | 0.0 | 0.00 | 0.00 | 0.00 | 58 | 1013.4 |
| 20260905042301 | 82 | 100 | 0.0 | 0.0 | 0.00 | 0.00 | 0.00 | 58 | 1013.5 |
| 20260905041800 | 82 | 122 | 0.0 | 0.0 | 0.00 | 0.00 | 0.00 | 58 | 1013.5 |
| 20260905040301 | 83 | 145 | 0.9 | 4.3 | 0.00 | 0.00 | 0.00 | 57 | 1013.1 |
| 20260905035801 | 83 | 100 | 0.9 | 4.3 | 0.00 | 0.00 | 0.00 | 57 | 1013.1 |
| 20260905035301 | 83 | 100 | 0.9 | 1.7 | 0.00 | 0.00 | 0.00 | 57 | 1013.1 |
| 20260905034801 | 83 | 104 | 0.0 | 1.7 | 0.00 | 0.00 | 0.00 | 57 | 1013.3 |
| 20260905034301 | 84 | 100 | 0.0 | 0.0 | 0.00 | 0.00 | 0.00 | 56 | 1013.3 |
| 20260905033801 | 83 | 112 | 0.0 | 0.0 | 0.00 | 0.00 | 0.00 | 56 | 1013.3 |
| 20260905032801 | 84 | 140 | 0.0 | 0.0 | 0.00 | 0.00 | 0.00 | 56 | 1013.5 |
| 20260905032301 | 84 | 209 | 0.0 | 0.0 | 0.00 | 0.00 | 0.00 | 55 | 1013.5 |
| 20260905031800 | 84 | 233 | 0.0 | 0.0 | 0.00 | 0.00 | 0.00 | 56 | 1013.5 |
| 20260905030301 | 83 | 122 | 0.0 | 0.0 | 0.00 | 0.00 | 0.00 | 56 | 1013.5 |
| 20260905024801 | 84 | 100 | 0.9 | 1.7 | 0.00 | 0.00 | 0.00 | 55 | 1013.3 |
| 20260905024300 | 84 | 120 | 0.0 | 1.7 | 0.00 | 0.00 | 0.00 | 55 | 1013.2 |
| 20260905023800 | 84 | 122 | 0.0 | 0.0 | 0.00 | 0.00 | 0.00 | 54 | 1013.2 |
| 20260905022801 | 85 | 122 | 0.0 | 0.0 | 0.00 | 0.00 | 0.00 | 52 | 1013.0 |
| 20260905022301 | 85 | 257 | 0.0 | 0.0 | 0.00 | 0.00 | 0.00 | 52 | 1013.0 |
| 20260905021301 | 85 | 122 | 0.0 | 0.0 | 0.00 | 0.00 | 0.00 | 50 | 1013.0 |
| 20260905020801 | 86 | 253 | 0.0 | 0.0 | 0.00 | 0.00 | 0.00 | 50 | 1012.8 |
| 20260905020301 | 86 | 101 | 0.0 | 0.0 | 0.00 | 0.00 | 0.00 | 50 | 1012.8 |
| 20260905015801 | 86 | 118 | 0.0 | 0.0 | 0.00 | 0.00 | 0.00 | 49 | 1012.8 |
| 20260905015301 | 86 | 146 | 0.0 | 0.0 | 0.00 | 0.00 | 0.00 | 49 | 1012.8 |
| 20260905014801 | 87 | 136 | 0.0 | 0.0 | 0.00 | 0.00 | 0.00 | 49 | 1012.8 |
| 20260905014301 | 87 | 101 | 0.0 | 0.0 | 0.00 | 0.00 | 0.00 | 48 | 1012.8 |
| 20260905013801 | 87 | 135 | 0.0 | 0.0 | 0.00 | 0.00 | 0.00 | 48 | 1012.8 |
| 20260905012300 | 87 | 80 | 0.0 | 0.0 | 0.00 | 0.00 | 0.00 | 47 | 1012.4 |
| 20260905011800 | 88 | 145 | 0.0 | 0.0 | 0.00 | 0.00 | 0.00 | 47 | 1012.4 |
| 20260905010801 | 88 | 145 | 0.9 | 0.0 | 0.00 | 0.00 | 0.00 | 46 | 1012.6 |
| 20260905005301 | 89 | 121 | 0.0 | 0.0 | 0.00 | 0.00 | 0.00 | 45 | 1012.6 |
| 20260905004801 | 89 | 118 | 0.0 | 0.0 | 0.00 | 0.00 | 0.00 | 44 | 1012.4 |
| 20260905004301 | 90 | 121 | 0.0 | 0.0 | 0.00 | 0.00 | 0.00 | 44 | 1012.3 |
| 20260905003301 | 90 | 100 | 0.0 | 1.7 | 0.00 | 0.00 | 0.00 | 43 | 1012.3 |
| 20260905002301 | 91 | 122 | 0.0 | 0.0 | 0.00 | 0.00 | 0.00 | 42 | 1012.6 |
| 20260905001801 | 91 | 107 | 0.0 | 0.0 | 0.00 | 0.00 | 0.00 | 42 | 1012.6 |
| 20260905001301 | 91 | 122 | 0.9 | 0.0 | 0.00 | 0.00 | 0.00 | 41 | 1012.6 |
| 20260905000801 | 91 | 100 | 0.9 | 4.3 | 0.00 | 0.00 | 0.00 | 40 | 1012.2 |
| 20260904235801 | 92 | 149 | 1.7 | 4.3 | 0.00 | 0.00 | 0.00 | 39 | 1012.1 |
| 20260904235301 | 92 | 121 | 2.6 | 4.3 | 0.00 | 0.00 | 0.00 | 39 | 1012.1 |
| 20260904233801 | 93 | 100 | 2.6 | 6.1 | 0.00 | 0.00 | 0.00 | 37 | 1012.0 |
| 20260904233301 | 93 | 122 | 2.6 | 4.3 | 0.00 | 0.00 | 0.00 | 37 | 1012.0 |
| 20260904232801 | 94 | 100 | 1.7 | 5.2 | 0.00 | 0.00 | 0.00 | 36 | 1012.0 |
| 20260904232301 | 95 | 122 | 1.7 | 6.1 | 0.00 | 0.00 | 0.00 | 35 | 1012.0 |
| 20260904231801 | 95 | 252 | 2.6 | 6.1 | 0.00 | 0.00 | 0.00 | 34 | 1012.0 |
| 20260904231300 | 96 | 76 | 2.6 | 6.1 | 0.00 | 0.00 | 0.00 | 33 | 1012.0 |
| 20260904230801 | 97 | 108 | 2.6 | 6.1 | 0.00 | 0.00 | 0.00 | 32 | 1012.2 |
| 20260904230301 | 98 | 122 | 2.6 | 5.2 | 0.00 | 0.00 | 0.00 | 31 | 1012.2 |
| 20260904225305 | 99 | 101 | 2.6 | 7.0 | 0.00 | 0.00 | 0.00 | 30 | 1012.2 |
| 20260904224801 | 99 | 118 | 3.5 | 7.0 | 0.00 | 0.00 | 0.00 | 30 | 1012.8 |
| 20260904224301 | 99 | 184 | 2.6 | 7.0 | 0.00 | 0.00 | 0.00 | 29 | 1012.8 |
| 20260904223801 | 100 | 115 | 1.7 | 7.0 | 0.00 | 0.00 | 0.00 | 27 | 1012.8 |
| 20260904223301 | 102 | 142 | 1.7 | 4.3 | 0.00 | 0.00 | 0.00 | 26 | 1012.8 |
| 20260904222305 | 103 | 127 | 1.7 | 1.7 | 0.00 | 0.00 | 0.00 | 25 | 1012.7 |
| 20260904221801 | 103 | 164 | 2.6 | 6.1 | 0.00 | 0.00 | 0.00 | 25 | 1012.7 |
| 20260904221301 | 103 | 100 | 2.6 | 8.7 | 0.00 | 0.00 | 0.00 | 25 | 1012.7 |
| 20260904220802 | 103 | 145 | 1.7 | 6.1 | 0.00 | 0.00 | 0.00 | 25 | 1012.9 |
| 20260904220301 | 103 | 124 | 2.6 | 6.1 | 0.00 | 0.00 | 0.00 | 25 | 1012.9 |
| 20260904215802 | 103 | 100 | 2.6 | 6.1 | 0.00 | 0.00 | 0.00 | 25 | 1012.9 |
| 20260904215300 | 103 | 302 | 1.7 | 6.1 | 0.00 | 0.00 | 0.00 | 25 | 1012.9 |
| 20260904214801 | 102 | 175 | 1.7 | 6.1 | 0.00 | 0.00 | 0.00 | 27 | 1013.2 |
| 20260904214301 | 101 | 322 | 1.7 | 7.8 | 0.00 | 0.00 | 0.00 | 26 | 1013.3 |
| 20260904213801 | 103 | 117 | 1.7 | 7.8 | 0.00 | 0.00 | 0.00 | 24 | 1013.3 |
| 20260904213301 | 104 | 148 | 1.7 | 5.2 | 0.00 | 0.00 | 0.00 | 24 | 1013.3 |
| 20260904212801 | 104 | 302 | 1.7 | 4.3 | 0.00 | 0.00 | 0.00 | 26 | 1013.1 |
| 20260904212301 | 104 | 302 | 0.9 | 7.8 | 0.00 | 0.00 | 0.00 | 26 | 1013.1 |
| 20260904211801 | 105 | 139 | 0.9 | 7.8 | 0.00 | 0.00 | 0.00 | 25 | 1013.1 |
| 20260904211301 | 104 | 97 | 2.6 | 5.2 | 0.00 | 0.00 | 0.00 | 28 | 1013.1 |
| 20260904210801 | 102 | 225 | 3.5 | 7.8 | 0.00 | 0.00 | 0.00 | 26 | 1013.3 |
| 20260904210301 | 101 | 143 | 3.5 | 7.8 | 0.00 | 0.00 | 0.00 | 28 | 1013.4 |
| 20260904205301 | 100 | 283 | 2.6 | 5.2 | 0.00 | 0.00 | 0.00 | 28 | 1013.4 |
| 20260904204802 | 101 | 122 | 2.6 | 5.2 | 0.00 | 0.00 | 0.00 | 28 | 1013.7 |
| 20260904204301 | 101 | 212 | 2.6 | 10.4 | 0.00 | 0.00 | 0.00 | 28 | 1013.8 |
| 20260904203800 | 102 | 109 | 4.3 | 6.1 | 0.00 | 0.00 | 0.00 | 27 | 1013.8 |
| 20260904203301 | 103 | 124 | 2.6 | 7.8 | 0.00 | 0.00 | 0.00 | 28 | 1013.8 |
| 20260904202801 | 102 | 269 | 3.5 | 7.8 | 0.00 | 0.00 | 0.00 | 29 | 1014.1 |
| 20260904202305 | 102 | 254 | 2.6 | 7.8 | 0.00 | 0.00 | 0.00 | 29 | 1014.2 |
| 20260904201801 | 102 | 95 | 1.7 | 7.8 | 0.00 | 0.00 | 0.00 | 29 | 1014.2 |
| 20260904201301 | 102 | 327 | 1.7 | 8.7 | 0.00 | 0.00 | 0.00 | 32 | 1014.2 |
| 20260904200802 | 103 | 122 | 1.7 | 2.6 | 0.00 | 0.00 | 0.00 | 30 | 1014.3 |
| 20260904200301 | 102 | 148 | 2.6 | 6.1 | 0.00 | 0.00 | 0.00 | 32 | 1014.3 |
| 20260904195801 | 101 | 288 | 4.3 | 6.1 | 0.00 | 0.00 | 0.00 | 33 | 1014.3 |
| 20260904195301 | 99 | 259 | 4.3 | 10.4 | 0.00 | 0.00 | 0.00 | 33 | 1014.3 |
| 20260904194801 | 99 | 131 | 2.6 | 10.4 | 0.00 | 0.00 | 0.00 | 33 | 1014.5 |
| 20260904193801 | 99 | 111 | 4.3 | 6.1 | 0.00 | 0.00 | 0.00 | 33 | 1014.7 |
| 20260904193301 | 99 | 102 | 4.3 | 6.1 | 0.00 | 0.00 | 0.00 | 33 | 1014.7 |
| 20260904192801 | 101 | 133 | 1.7 | 6.1 | 0.00 | 0.00 | 0.00 | 32 | 1014.9 |
| 20260904191801 | 102 | 293 | 1.7 | 4.3 | 0.00 | 0.00 | 0.00 | 35 | 1014.9 |
| 20260904191301 | 101 | 260 | 1.7 | 5.2 | 0.00 | 0.00 | 0.00 | 34 | 1014.9 |
| 20260904190801 | 102 | 295 | 1.7 | 2.6 | 0.00 | 0.00 | 0.00 | 34 | 1014.8 |
| 20260904190301 | 101 | 119 | 1.7 | 4.3 | 0.00 | 0.00 | 0.00 | 34 | 1014.8 |
| 20260904185801 | 100 | 253 | 2.6 | 4.3 | 0.00 | 0.00 | 0.00 | 35 | 1014.8 |
| 20260904185301 | 100 | 302 | 2.6 | 10.4 | 0.00 | 0.00 | 0.00 | 35 | 1014.8 |
| 20260904184801 | 99 | 302 | 1.7 | 10.4 | 0.00 | 0.00 | 0.00 | 36 | 1015.0 |
| 20260904184301 | 98 | 168 | 1.7 | 5.2 | 0.00 | 0.00 | 0.00 | 38 | 1015.0 |
| 20260904183801 | 96 | 159 | 2.6 | 5.2 | 0.00 | 0.00 | 0.00 | 40 | 1015.0 |
| 20260904183301 | 96 | 144 | 2.6 | 10.4 | 0.00 | 0.00 | 0.00 | 38 | 1015.0 |
| 20260904182801 | 95 | 95 | 1.7 | 4.3 | 0.00 | 0.00 | 0.00 | 41 | 1015.1 |
| 20260904182301 | 92 | 97 | 1.7 | 5.2 | 0.00 | 0.00 | 0.00 | 41 | 1015.1 |
| 20260904181801 | 94 | 235 | 1.7 | 6.1 | 0.00 | 0.00 | 0.00 | 42 | 1015.1 |
| 20260904181301 | 94 | 257 | 2.6 | 7.8 | 0.00 | 0.00 | 0.00 | 42 | 1015.1 |
| 20260904180801 | 94 | 246 | 2.6 | 7.8 | 0.00 | 0.00 | 0.00 | 43 | 1015.5 |
| 20260904180301 | 93 | 97 | 4.3 | 7.8 | 0.00 | 0.00 | 0.00 | 42 | 1015.6 |
| 20260904175801 | 93 | 307 | 2.6 | 6.1 | 0.00 | 0.00 | 0.00 | 44 | 1015.6 |
| 20260904175301 | 92 | 214 | 4.3 | 10.4 | 0.00 | 0.00 | 0.00 | 45 | 1015.6 |
| 20260904174800 | 92 | 266 | 4.3 | 11.3 | 0.00 | 0.00 | 0.00 | 44 | 1015.2 |
| 20260904174301 | 92 | 263 | 2.6 | 12.2 | 0.00 | 0.00 | 0.00 | 44 | 1015.1 |
| 20260904173801 | 91 | 302 | 2.6 | 12.2 | 0.00 | 0.00 | 0.00 | 45 | 1015.1 |
| 20260904173301 | 91 | 302 | 4.3 | 7.8 | 0.00 | 0.00 | 0.00 | 46 | 1015.1 |
| 20260904172801 | 91 | 218 | 5.2 | 13.9 | 0.00 | 0.00 | 0.00 | 46 | 1015.6 |
| 20260904172305 | 91 | 346 | 4.3 | 13.9 | 0.00 | 0.00 | 0.00 | 46 | 1015.8 |
| 20260904171801 | 91 | 258 | 4.3 | 5.2 | 0.00 | 0.00 | 0.00 | 47 | 1015.8 |
| 20260904171301 | 90 | 237 | 5.2 | 7.8 | 0.00 | 0.00 | 0.00 | 48 | 1015.8 |
| 20260904170801 | 90 | 110 | 5.2 | 12.2 | 0.00 | 0.00 | 0.00 | 48 | 1015.9 |
| 20260904170301 | 90 | 324 | 5.2 | 7.8 | 0.00 | 0.00 | 0.00 | 48 | 1015.9 |
| 20260904165804 | 89 | 297 | 4.3 | 11.3 | 0.00 | 0.00 | 0.00 | 48 | 1015.9 |
| 20260904165305 | 89 | 97 | 4.3 | 11.3 | 0.00 | 0.00 | 0.00 | 50 | 1015.9 |
| 20260904164801 | 89 | 132 | 2.6 | 7.0 | 0.00 | 0.00 | 0.00 | 50 | 1016.1 |
| 20260904163301 | 88 | 301 | 3.5 | 10.4 | 0.00 | 0.00 | 0.00 | 52 | 1016.1 |
| 20260904162301 | 87 | 122 | 5.2 | 7.8 | 0.00 | 0.00 | 0.00 | 53 | 1016.1 |
| 20260904161801 | 87 | 331 | 5.2 | 7.8 | 0.00 | 0.00 | 0.00 | 54 | 1016.1 |
| 20260904161301 | 87 | 166 | 3.5 | 7.0 | 0.00 | 0.00 | 0.00 | 54 | 1016.1 |
| 20260904160801 | 87 | 127 | 2.6 | 4.3 | 0.00 | 0.00 | 0.00 | 55 | 1015.9 |
| 20260904160301 | 87 | 120 | 2.6 | 8.7 | 0.00 | 0.00 | 0.00 | 56 | 1015.8 |
| 20260904155801 | 86 | 133 | 4.3 | 8.7 | 0.00 | 0.00 | 0.00 | 56 | 1015.8 |
| 20260904154301 | 86 | 121 | 5.2 | 12.2 | 0.00 | 0.00 | 0.00 | 57 | 1015.9 |
| 20260904153301 | 85 | 164 | 6.1 | 13.9 | 0.00 | 0.00 | 0.00 | 57 | 1015.9 |
| 20260904152801 | 85 | 86 | 5.2 | 7.8 | 0.00 | 0.00 | 0.00 | 57 | 1015.9 |
| 20260904152301 | 85 | 209 | 4.3 | 7.8 | 0.00 | 0.00 | 0.00 | 57 | 1015.9 |
| 20260904151801 | 85 | 83 | 4.3 | 5.2 | 0.00 | 0.00 | 0.00 | 58 | 1015.9 |
| 20260904151302 | 85 | 82 | 4.3 | 5.2 | 0.00 | 0.00 | 0.00 | 58 | 1015.9 |
| 20260904150801 | 85 | 89 | 6.1 | 7.8 | 0.00 | 0.00 | 0.00 | 58 | 1015.7 |
| 20260904150301 | 84 | 80 | 5.2 | 12.2 | 0.00 | 0.00 | 0.00 | 58 | 1015.6 |
| 20260904145801 | 84 | 145 | 4.3 | 11.3 | 0.00 | 0.00 | 0.00 | 59 | 1015.6 |
| 20260904145305 | 84 | 124 | 4.3 | 7.8 | 0.00 | 0.00 | 0.00 | 59 | 1015.6 |
| 20260904144801 | 84 | 82 | 5.2 | 12.2 | 0.00 | 0.00 | 0.00 | 60 | 1015.4 |
| 20260904143801 | 84 | 100 | 5.2 | 13.9 | 0.00 | 0.00 | 0.00 | 60 | 1015.4 |
| 20260904143301 | 83 | 254 | 4.3 | 7.8 | 0.00 | 0.00 | 0.00 | 60 | 1015.4 |
| 20260904142801 | 83 | 163 | 4.3 | 8.7 | 0.00 | 0.00 | 0.00 | 60 | 1014.9 |
| 20260904142301 | 83 | 79 | 4.3 | 8.7 | 0.00 | 0.00 | 0.00 | 61 | 1014.6 |
| 20260904141801 | 82 | 333 | 4.3 | 11.3 | 0.00 | 0.00 | 0.00 | 63 | 1014.6 |
| 20260904141301 | 82 | 123 | 4.3 | 11.3 | 0.00 | 0.00 | 0.00 | 63 | 1014.6 |
| 20260904140301 | 81 | 164 | 1.7 | 8.7 | 0.00 | 0.00 | 0.00 | 64 | 1015.6 |
| 20260904135801 | 81 | 114 | 1.7 | 8.7 | 0.00 | 0.00 | 0.00 | 65 | 1015.6 |
| 20260904135301 | 81 | 257 | 1.7 | 8.7 | 0.00 | 0.00 | 0.00 | 65 | 1015.6 |
| 20260904134301 | 80 | 74 | 1.7 | 2.6 | 0.00 | 0.00 | 0.00 | 67 | 1015.4 |
| 20260904133801 | 80 | 330 | 1.7 | 7.0 | 0.00 | 0.00 | 0.00 | 67 | 1015.4 |
| 20260904133301 | 79 | 99 | 2.6 | 7.0 | 0.00 | 0.00 | 0.00 | 68 | 1015.4 |
| 20260904132301 | 78 | 122 | 0.9 | 4.3 | 0.00 | 0.00 | 0.00 | 70 | 1015.5 |
| 20260904131801 | 78 | 100 | 0.9 | 4.3 | 0.00 | 0.00 | 0.00 | 71 | 1015.5 |
| 20260904131301 | 77 | 145 | 0.9 | 2.6 | 0.00 | 0.00 | 0.00 | 72 | 1015.5 |
| 20260904130302 | 77 | 100 | 1.7 | 2.6 | 0.00 | 0.00 | 0.00 | 72 | 1015.6 |
| 20260904125801 | 76 | 144 | 0.9 | 2.6 | 0.00 | 0.00 | 0.00 | 73 | 1015.6 |
| 20260904125305 | 76 | 122 | 0.9 | 0.0 | 0.00 | 0.00 | 0.00 | 73 | 1015.6 |
| 20260904124801 | 76 | 122 | 0.0 | 2.6 | 0.00 | 0.00 | 0.00 | 74 | 1015.4 |
| 20260904124302 | 76 | 122 | 0.9 | 0.0 | 0.00 | 0.00 | 0.00 | 74 | 1015.3 |
| 20260904123801 | 76 | 108 | 0.9 | 2.6 | 0.00 | 0.00 | 0.00 | 74 | 1015.3 |
| 20260904123301 | 76 | 100 | 0.9 | 2.6 | 0.00 | 0.00 | 0.00 | 75 | 1015.3 |
| 20260904122801 | 75 | 140 | 0.0 | 0.0 | 0.00 | 0.00 | 0.00 | 76 | 1015.3 |
| 20260904122302 | 74 | 122 | 0.0 | 0.0 | 0.00 | 0.00 | 0.00 | 76 | 1015.3 |
| 20260904121801 | 74 | 122 | 0.0 | 0.0 | 0.00 | 0.00 | 0.00 | 75 | 1015.3 |
| 20260904121302 | 74 | 122 | 0.9 | 0.0 | 0.00 | 0.00 | 0.00 | 75 | 1015.3 |
| 20260904120801 | 74 | 100 | 0.9 | 2.6 | 0.00 | 0.00 | 0.00 | 76 | 1015.3 |
| 20260904115801 | 74 | 122 | 0.0 | 0.0 | 0.00 | 0.00 | 0.00 | 75 | 1015.3 |
| 20260904115301 | 74 | 100 | 0.0 | 0.0 | 0.00 | 0.00 | 0.00 | 74 | 1015.3 |
| 20260904114802 | 74 | 123 | 0.0 | 0.0 | 0.00 | 0.00 | 0.00 | 74 | 1015.2 |
| 20260904113802 | 75 | 100 | 0.0 | 0.0 | 0.00 | 0.00 | 0.00 | 74 | 1015.1 |
| 20260904113302 | 74 | 122 | 0.0 | 0.0 | 0.00 | 0.00 | 0.00 | 74 | 1015.1 |
| 20260904112801 | 74 | 284 | 0.0 | 0.0 | 0.00 | 0.00 | 0.00 | 73 | 1015.0 |
| 20260904112305 | 75 | 235 | 0.0 | 0.0 | 0.00 | 0.00 | 0.00 | 73 | 1014.7 |
| 20260904111801 | 75 | 145 | 0.0 | 0.0 | 0.00 | 0.00 | 0.00 | 73 | 1014.7 |
| 20260904111302 | 75 | 122 | 0.0 | 0.0 | 0.00 | 0.00 | 0.00 | 72 | 1014.7 |
| 20260904110801 | 75 | 145 | 0.0 | 0.0 | 0.00 | 0.00 | 0.00 | 72 | 1014.6 |
| 20260904110301 | 75 | 100 | 0.0 | 0.0 | 0.00 | 0.00 | 0.00 | 72 | 1014.6 |
| 20260904105802 | 75 | 145 | 0.0 | 0.0 | 0.00 | 0.00 | 0.00 | 71 | 1014.6 |
| 20260904105305 | 76 | 102 | 0.0 | 0.0 | 0.00 | 0.00 | 0.00 | 71 | 1014.6 |
| 20260904104801 | 76 | 135 | 0.9 | 1.7 | 0.00 | 0.00 | 0.00 | 71 | 1014.6 |
| 20260904104301 | 76 | 122 | 0.9 | 4.3 | 0.00 | 0.00 | 0.00 | 71 | 1014.6 |
| 20260904102801 | 76 | 93 | 0.0 | 1.7 | 0.00 | 0.00 | 0.00 | 71 | 1014.4 |
| 20260904102301 | 76 | 100 | 0.0 | 0.0 | 0.00 | 0.00 | 0.00 | 71 | 1014.3 |
| 20260904101801 | 76 | 100 | 0.0 | 0.0 | 0.00 | 0.00 | 0.00 | 71 | 1014.3 |
| 20260904100802 | 76 | 132 | 0.0 | 0.0 | 0.00 | 0.00 | 0.00 | 71 | 1014.3 |
| 20260904100301 | 76 | 100 | 0.9 | 0.0 | 0.00 | 0.00 | 0.00 | 71 | 1014.3 |
| 20260904095802 | 76 | 129 | 0.0 | 2.6 | 0.00 | 0.00 | 0.00 | 71 | 1014.3 |
| 20260904095305 | 76 | 100 | 0.0 | 0.0 | 0.00 | 0.00 | 0.00 | 71 | 1014.3 |
| 20260904094801 | 76 | 161 | 0.0 | 0.0 | 0.00 | 0.00 | 0.00 | 70 | 1014.2 |
| 20260904094302 | 76 | 145 | 0.0 | 0.0 | 0.00 | 0.00 | 0.00 | 71 | 1014.2 |
| 20260904093801 | 76 | 86 | 0.0 | 0.0 | 0.00 | 0.00 | 0.00 | 71 | 1014.2 |
| 20260904093301 | 76 | 122 | 0.0 | 0.0 | 0.00 | 0.00 | 0.00 | 70 | 1014.2 |
| 20260904092801 | 76 | 114 | 0.0 | 0.0 | 0.00 | 0.00 | 0.00 | 70 | 1014.0 |
| 20260904092301 | 76 | 122 | 0.0 | 0.0 | 0.00 | 0.00 | 0.00 | 70 | 1013.9 |
| 20260904091802 | 76 | 100 | 0.0 | 0.0 | 0.00 | 0.00 | 0.00 | 70 | 1013.9 |
| 20260904091302 | 77 | 168 | 0.0 | 0.0 | 0.00 | 0.00 | 0.00 | 70 | 1013.9 |
| 20260904090802 | 77 | 150 | 0.0 | 0.0 | 0.00 | 0.00 | 0.00 | 70 | 1013.8 |
| 20260904090302 | 77 | 122 | 0.0 | 0.0 | 0.00 | 0.00 | 0.00 | 69 | 1013.7 |
| 20260904085301 | 77 | 100 | 0.0 | 0.0 | 0.00 | 0.00 | 0.00 | 69 | 1013.7 |
| 20260904084801 | 77 | 107 | 0.0 | 1.7 | 0.00 | 0.00 | 0.00 | 69 | 1013.8 |
| 20260904084301 | 77 | 122 | 0.9 | 1.7 | 0.00 | 0.00 | 0.00 | 69 | 1013.8 |
| 20260904083801 | 77 | 245 | 0.9 | 2.6 | 0.00 | 0.00 | 0.00 | 69 | 1013.8 |
| 20260904083301 | 78 | 122 | 0.9 | 2.6 | 0.00 | 0.00 | 0.00 | 68 | 1013.8 |
| 20260904082802 | 78 | 132 | 0.0 | 2.6 | 0.00 | 0.00 | 0.00 | 68 | 1013.9 |
| 20260904082305 | 78 | 100 | 0.0 | 0.0 | 0.00 | 0.00 | 0.00 | 68 | 1014.0 |
| 20260904081302 | 78 | 168 | 0.0 | 2.6 | 0.00 | 0.00 | 0.00 | 68 | 1014.0 |
| 20260904080801 | 78 | 130 | 0.0 | 1.7 | 0.00 | 0.00 | 0.00 | 67 | 1013.8 |
| 20260904080301 | 78 | 78 | 0.9 | 0.0 | 0.00 | 0.00 | 0.00 | 67 | 1013.7 |
| 20260904075802 | 78 | 123 | 0.9 | 1.7 | 0.00 | 0.00 | 0.00 | 67 | 1013.7 |
| 20260904075301 | 78 | 100 | 0.9 | 2.6 | 0.00 | 0.00 | 0.00 | 67 | 1013.7 |
| 20260904074801 | 78 | 121 | 0.9 | 2.6 | 0.00 | 0.00 | 0.00 | 66 | 1013.8 |
| 20260904073802 | 79 | 184 | 0.9 | 1.7 | 0.00 | 0.00 | 0.00 | 65 | 1013.9 |
| 20260904073302 | 79 | 145 | 0.9 | 1.7 | 0.00 | 0.00 | 0.00 | 65 | 1013.9 |
| 20260904072802 | 79 | 131 | 0.0 | 1.7 | 0.00 | 0.00 | 0.00 | 65 | 1013.7 |
| 20260904072301 | 79 | 122 | 0.0 | 1.7 | 0.00 | 0.00 | 0.00 | 65 | 1013.6 |
| 20260904071801 | 79 | 122 | 0.0 | 2.6 | 0.00 | 0.00 | 0.00 | 65 | 1013.6 |
| 20260904071301 | 79 | 100 | 0.0 | 2.6 | 0.00 | 0.00 | 0.00 | 65 | 1013.6 |
| 20260904070801 | 79 | 100 | 0.0 | 0.0 | 0.00 | 0.00 | 0.00 | 65 | 1013.7 |
| 20260904070302 | 79 | 325 | 0.9 | 0.0 | 0.00 | 0.00 | 0.00 | 64 | 1013.8 |
| 20260904065801 | 79 | 142 | 0.9 | 1.7 | 0.00 | 0.00 | 0.00 | 64 | 1013.8 |
| 20260904065301 | 79 | 100 | 0.9 | 1.7 | 0.00 | 0.00 | 0.00 | 64 | 1013.8 |
| 20260904064801 | 80 | 14 | 0.9 | 4.3 | 0.00 | 0.00 | 0.00 | 64 | 1013.8 |
| 20260904064301 | 80 | 100 | 0.0 | 2.6 | 0.00 | 0.00 | 0.00 | 64 | 1013.8 |
| 20260904063801 | 80 | 128 | 0.9 | 2.6 | 0.00 | 0.00 | 0.00 | 64 | 1013.8 |
| 20260904063302 | 80 | 145 | 0.9 | 2.6 | 0.00 | 0.00 | 0.00 | 64 | 1013.8 |
| 20260904062801 | 80 | 114 | 0.0 | 1.7 | 0.00 | 0.00 | 0.00 | 64 | 1013.7 |
| 20260904061301 | 80 | 145 | 0.9 | 1.7 | 0.00 | 0.00 | 0.00 | 63 | 1013.7 |